Location: *
(40.9167°N, 9.5000°E)
Time: 08:23:05
(UTC+00:00)

Cosmos 1850 Rocket - Pass Details

Date: 09 April 2020
Orbit: 754 x 786 km, 74.0° (Epoch: 03 June)

Event Time Altitude Azimuth Distance (km) Brightness Sun altitude
Exits shadow 20:24:22 49° 214° (SW) 967 4.4 -26.1°
Maximum altitude 20:25:46 78° 290° (WNW) 775 4.0 -26.3°
Drops below altitude 10° 20:30:57 10° 17° (NNE) 2,286 6.7 -27.1°
Sets 20:33:20 0° 19° (NNE) 3,216 7.5 -27.4°
